FW5447 Weather Reports


time (UTC)temp
C
wind
direction
speed
KPH
gust
KPH
rain 1hr
cm
rain 24hr
cm
rain mn
cm
humidity
%
barometer
mb
20260906051517 10 67 1.6 6.4 0.00 0.86 0.00 90 1003.8
20260906050517 10 68 1.6 8.0 0.00 0.86 0.00 90 1003.7
20260906045517 10 65 1.6 8.0 0.00 0.86 0.00 90 1003.5
20260906044537 10 65 1.6 4.8 0.00 0.86 0.00 91 1003.4
20260906043538 10 64 1.6 4.8 0.00 0.86 0.00 93 1003.3
20260906042518 10 69 1.6 6.4 0.00 0.89 0.00 95 1003.1
20260906041518 10 66 1.6 4.8 0.00 0.89 0.00 96 1003.0
20260906040515 10 63 1.6 6.4 0.00 0.89 0.00 96 1002.8
20260906035516 10 65 1.6 6.4 0.00 0.91 0.00 96 1002.6
20260906034518 10 84 1.6 3.2 0.00 0.91 0.00 96 1002.5
20260906033516 10 86 1.6 4.8 0.00 0.91 0.00 96 1002.3
20260906032536 10 79 1.6 4.8 0.00 0.91 0.00 96 1002.1
20260906031516 10 80 1.6 3.2 0.00 0.91 0.00 96 1002.0
20260906030516 10 87 0.0 3.2 0.00 0.91 0.00 96 1001.9
20260906025516 10 148 0.0 3.2 0.00 0.91 0.00 96 1001.7
20260906024516 10 250 0.0 1.6 0.00 0.91 0.00 96 1001.7
20260906023516 10 235 0.0 1.6 0.00 0.91 0.00 96 1001.5
20260906022557 10 251 0.0 1.6 0.00 0.91 0.00 96 1001.3
20260906021537 10 238 0.0 1.6 0.00 0.91 0.00 96 1001.2
20260906020517 9 210 0.0 1.6 0.00 0.91 0.00 96 1001.1
20260906015537 9 215 0.0 1.6 0.00 0.91 0.00 96 1001.0
20260906014517 9 239 0.0 1.6 0.00 0.91 0.00 96 1001.0
20260906013517 9 237 0.0 1.6 0.00 0.91 0.00 96 1000.8
20260906012537 8 234 0.0 1.6 0.00 0.91 0.00 96 1000.8
20260906011518 8 244 0.0 1.6 0.00 0.91 0.00 96 1000.7
20260906010518 8 225 0.0 1.6 0.00 0.91 0.00 96 1000.7
20260906005538 9 243 1.6 3.2 0.00 0.91 0.00 96 1000.6
20260906004518 9 241 0.0 3.2 0.00 0.91 0.00 96 1000.5
20260906003518 9 255 0.0 1.6 0.00 0.91 0.00 96 1000.4
20260906002515 9 232 0.0 1.6 0.00 0.91 0.00 96 1000.3
20260906001516 9 240 1.6 3.2 0.00 0.91 0.00 96 1000.2
20260906000515 9 246 0.0 3.2 0.00 0.91 0.00 96 1000.1
20260905235516 9 240 1.6 1.6 0.00 0.91 0.00 96 1000.0
20260905234516 9 233 0.0 1.6 0.00 0.91 0.00 96 999.9
20260905233516 10 239 0.0 3.2 0.00 0.91 0.00 96 999.9
20260905232516 10 234 1.6 3.2 0.00 0.91 0.00 96 999.8
20260905231517 10 240 0.0 1.6 0.00 0.91 0.00 96 999.7
20260905230516 10 222 1.6 3.2 0.00 0.91 0.00 96 999.6
20260905225537 10 222 0.0 3.2 0.00 0.91 0.00 96 999.7
20260905224517 10 207 0.0 3.2 0.00 0.91 0.00 96 999.6
20260905223517 10 222 0.0 3.2 0.00 0.91 0.00 96 999.5
20260905222517 10 219 0.0 3.2 0.00 0.91 0.00 96 999.5
20260905221518 10 221 0.0 3.2 0.00 0.91 0.00 96 999.3
20260905220518 11 233 0.0 1.6 0.00 0.91 0.00 96 999.2
20260905215518 11 224 0.0 3.2 0.00 0.91 0.00 96 999.2
20260905214515 10 146 0.0 3.2 0.00 0.91 0.00 96 999.1
20260905213518 10 227 1.6 3.2 0.00 0.91 0.00 96 999.1
20260905212515 10 194 0.0 1.6 0.00 0.91 0.00 96 999.0
20260905211516 10 226 0.0 3.2 0.00 0.91 0.00 96 999.0
20260905210516 10 226 1.6 3.2 0.00 0.91 0.00 96 999.0
20260905205516 10 211 1.6 3.2 0.00 0.91 0.91 96 998.9
20260905204516 10 186 0.0 3.2 0.00 0.91 0.91 96 998.8
20260905203516 10 212 0.0 3.2 0.00 0.91 0.91 96 998.7
20260905202516 10 228 0.0 3.2 0.00 0.91 0.91 96 998.6
20260905201516 10 208 0.0 1.6 0.00 0.91 0.91 96 998.5
20260905200516 9 225 0.0 1.6 0.00 0.91 0.91 95 998.5
20260905195516 9 224 0.0 3.2 0.00 0.91 0.91 95 998.4
20260905194517 9 195 1.6 3.2 0.00 0.91 0.91 95 998.4
20260905193517 8 221 0.0 3.2 0.00 0.91 0.91 95 998.4
20260905192517 8 218 1.6 3.2 0.00 0.91 0.91 95 998.4
20260905191517 8 209 0.0 3.2 0.00 0.91 0.91 95 998.4
20260905190517 8 219 0.0 3.2 0.00 0.91 0.91 95 998.4
20260905185517 8 211 0.0 1.6 0.00 0.91 0.91 95 998.4
20260905184537 9 205 0.0 3.2 0.00 0.91 0.91 95 998.3
20260905183518 9 228 0.0 1.6 0.00 0.91 0.91 95 998.2
20260905182538 9 233 1.6 3.2 0.00 0.91 0.91 94 998.2
20260905181515 9 224 0.0 3.2 0.00 0.91 0.91 94 998.2
20260905180519 9 227 0.0 1.6 0.00 0.91 0.91 94 998.2
20260905175516 10 210 1.6 3.2 0.00 0.91 0.91 94 998.1
20260905174516 10 227 1.6 3.2 0.00 0.91 0.91 94 998.1
20260905173516 10 241 0.0 3.2 0.00 0.91 0.91 94 998.1
20260905172516 10 224 1.6 3.2 0.00 0.91 0.91 94 998.0
20260905171516 11 233 1.6 3.2 0.00 0.91 0.91 94 997.9
20260905170516 11 241 1.6 3.2 0.00 0.91 0.91 93 997.8
20260905165516 11 229 1.6 3.2 0.00 0.91 0.91 93 997.7
20260905164517 11 247 1.6 3.2 0.00 0.91 0.91 93 997.6
20260905163517 11 244 1.6 3.2 0.00 0.91 0.91 93 997.4
20260905162537 12 245 1.6 3.2 0.00 0.91 0.91 93 997.3
20260905161517 12 252 1.6 3.2 0.00 0.91 0.91 92 997.2
20260905160517 12 229 1.6 3.2 0.00 0.91 0.91 92 997.1
20260905155517 12 246 1.6 3.2 0.00 0.91 0.91 92 997.0
20260905154515 12 243 1.6 3.2 0.00 0.91 0.91 90 996.9
20260905153515 13 244 1.6 3.2 0.00 0.91 0.91 88 996.8
20260905152516 13 235 1.6 3.2 0.00 0.91 0.91 87 996.8
20260905151515 13 199 1.6 4.8 0.00 0.91 0.91 90 996.7
20260905150515 13 247 0.0 3.2 0.00 0.91 0.91 90 996.6
20260905145555 13 235 0.0 1.6 0.00 0.91 0.91 90 996.5
20260905144515 14 268 0.0 1.6 0.00 0.91 0.91 90 996.4
20260905143516 13 245 0.0 1.6 0.00 0.91 0.91 91 996.3
20260905142516 13 231 0.0 1.6 0.13 0.91 0.91 92 996.3
20260905141516 13 241 1.6 3.2 0.13 0.91 0.91 92 996.2
20260905140516 13 238 0.0 1.6 0.13 0.91 0.91 92 996.2
20260905135516 13 232 0.0 1.6 0.13 0.91 0.91 90 996.2
20260905134537 13 232 1.6 3.2 0.13 0.91 0.91 88 996.2
20260905133517 13 37 1.6 4.8 0.10 0.91 0.91 84 996.2
20260905132517 15 14 3.2 6.4 0.00 0.79 0.79 79 996.1
20260905131517 15 29 1.6 4.8 0.00 0.79 0.79 82 995.7
20260905130517 15 281 0.0 1.6 0.00 0.79 0.79 84 995.7
20260905125517 15 135 1.6 3.2 0.00 0.79 0.79 80 995.6
20260905124518 15 74 1.6 4.8 0.00 0.79 0.79 80 995.5
20260905123538 15 69 1.6 8.0 0.00 0.79 0.79 87 995.4
20260905122518 15 219 1.6 3.2 0.00 0.79 0.79 88 995.4
20260905121538 15 243 1.6 3.2 0.00 0.79 0.79 89 995.3
20260905120538 15 238 0.0 1.6 0.00 0.79 0.79 89 995.3
20260905115516 14 247 0.0 1.6 0.00 0.79 0.79 89 995.2
20260905114516 14 231 0.0 1.6 0.00 0.79 0.79 90 995.2
20260905113515 13 226 0.0 1.6 0.48 0.79 0.79 90 995.2
20260905112516 13 200 0.0 1.6 0.74 0.79 0.79 90 995.1
20260905111515 13 224 1.6 3.2 0.74 0.79 0.79 90 995.1
20260905110516 13 220 1.6 3.2 0.74 0.79 0.79 91 995.0
20260905105516 13 243 1.6 3.2 0.74 0.79 0.79 89 994.9
20260905104536 14 194 1.6 3.2 0.74 0.79 0.79 84 994.9
20260905103536 16 203 1.6 6.4 0.25 0.30 0.30 74 994.7
20260905102516 17 6 1.6 4.8 0.00 0.05 0.05 69 994.2
20260905101517 17 216 1.6 3.2 0.00 0.05 0.05 65 994.0
20260905100517 17 180 1.6 4.8 0.00 0.05 0.05 66 994.0
20260905095517 16 256 1.6 4.8 0.00 0.05 0.05 73 993.9
20260905094557 16 129 1.6 3.2 0.00 0.05 0.05 70 993.9
20260905093538 15 317 0.0 3.2 0.00 0.05 0.05 75 993.9
20260905092518 15 68 0.0 4.8 0.00 0.05 0.05 75 993.8
20260905091517 15 97 1.6 3.2 0.00 0.05 0.05 75 993.8
20260905090518 16 219 1.6 3.2 0.00 0.05 0.05 80 993.6
20260905085518 15 205 1.6 4.8 0.00 0.05 0.05 80 993.6
20260905084515 15 207 1.6 3.2 0.00 0.05 0.05 83 993.5
20260905083518 15 181 1.6 1.6 0.00 0.05 0.05 84 993.5
20260905082515 15 208 0.0 1.6 0.00 0.05 0.05 86 993.5
20260905081515 15 236 0.0 3.2 0.00 0.05 0.05 86 993.4
20260905080516 14 229 1.6 3.2 0.00 0.05 0.05 87 993.3
20260905075516 14 175 1.6 3.2 0.00 0.05 0.05 86 993.3
20260905074516 14 271 0.0 1.6 0.00 0.05 0.05 89 993.2
20260905073516 13 186 0.0 1.6 0.00 0.05 0.05 92 993.2
20260905072517 13 146 1.6 3.2 0.00 0.05 0.05 95 993.1
20260905071516 13 197 0.0 1.6 0.00 0.05 0.05 96 993.0
20260905070536 12 50 1.6 3.2 0.00 0.05 0.05 96 992.9
20260905065537 12 254 0.0 1.6 0.00 0.05 0.05 96 992.8
20260905064517 12 217 0.0 3.2 0.00 0.05 0.05 96 992.7
20260905063518 12 200 0.0 3.2 0.00 0.05 0.05 96 992.7
20260905062517 11 54 0.0 1.6 0.00 0.05 0.05 96 992.5
20260905061518 11 75 1.6 3.2 0.00 0.05 0.05 96 992.5
20260905060537 11 289 0.0 4.8 0.00 0.05 0.05 96 992.5
20260905055518 11 55 0.0 1.6 0.00 0.05 0.05 96 992.5
20260905054518 11 195 0.0 1.6 0.00 0.05 0.05 96 992.4
20260905053558 11 128 0.0 1.6 0.00 0.05 0.05 96 992.4
20260905052535 10 282 0.0 1.6 0.03 0.05 0.05 96 992.4